Location: Goettingen
(51.5300°N, 9.9433°E)
Time: 11:38:22
(UTC+02:00)

ISS - Pass Details

Date: 10 May 2025
Orbit: 416 x 419 km, 51.6° (Epoch: 18 May)

Event Time Altitude Azimuth Distance (km) Brightness Sun altitude
Exits shadow 04:38:58 - 265° (W) 1,777 -1.1 -8.0°
Reaches altitude 10° 04:40:08 10° 250° (WSW) 1,493 -1.5 -7.8°
Maximum altitude 04:41:45 13° 221° (SW) 1,320 -1.9 -7.7°
Drops below altitude 10° 04:43:22 10° 192° (SSW) 1,489 -1.4 -7.5°
Sets 04:46:19 0° 163° (SSE) 2,347 -0.2 -7.1°
